Location: Mohawk View
(42.7837°N, 73.7885°W)
Time: 15:53:19
(UTC+00:00)

NOSS 2-2 (D) - Pass Details

Date: 17 June 2021
Orbit: 453 x 1754 km, 63.3° (Epoch: 28 July)

Event Time Altitude Azimuth Distance (km) Brightness Sun altitude
Exits shadow 07:18:34 37° 197° (SSW) 718 3.4 -16.1°
Maximum altitude 07:19:45 70° 124° (SE) 486 3.0 -16.0°
Drops below altitude 10° 07:23:18 10° 40° (NE) 1,670 7.2 -15.7°
Sets 07:25:34 0° 38° (NE) 2,646 8.7 -15.4°
